Find Starlink 11313

NORAD ID: 61255 Int'l Des: 2024-175 Owner: SPXS Country: US Constellation: starlink operational
LEOCIRCULAR

リアルタイム位置

3D地球を読み込み中...

Starlink 11313について

説明を読み込み中...

次回通過

Passes for default location (London). Set your location on the main map for personalized predictions.

高度履歴

Loading altitude history...

軌道要素

1 61255U 24175N 26126.04469110 .00003720 00000-0 35558-4 0 9992
2 61255 53.1587 133.6058 0001210 51.5155 308.5971 15.69702048 92378
Epoch: May 6, 2026 • Age: 9 hours

現在のステータス

高度 376.3 km
速度 7.68 km/s
衛星直下点 -47.25°S, 64.4°E
打ち上げ日 Sep 25, 2024
運用期間 1.6 years
タイプ internet

技術仕様

分類 Payload
質量 960.00 kg
乾燥質量 910.00 kg
総質量 960.00 kg
長さ 0.30 m
直径 4.10 m
スパン 29.00 m
形状 Box + pan
製造者 SPXS
バスタイプ Starlink V2MD
フェーズステータス In Orbit
所有者/国 SPXS/US

Most Searched